Regional Weather Roundup
Issued by NWS

Home | Current Version | Previous Version | Text Only | Print | Product List | Glossary On
Versions: 1 2 3 4 5 6 7 8 9 10 11 12 13 14 15 16 17 18 19 20 21 22 23 24 25 26 27 28 29 30 31 32 33 34 35 36 37 38 39 40 41 42 43 44 45 46 47 48 49 50
000
ASUS44 KJAN 241203
RWRMS

MISSISSIPPI HOURLY WEATHER ROUNDUP
NATIONAL WEATHER SERVICE JACKSON MS
700 AM CDT THU JUL 24 2014

NOTE: "FAIR: INDICATES FEW OR NO CLOUDS BELOW 12,000 FEET WITH NO
SIGNIFICANT WEATHER AND/OR OBSTRUCTIONS TO VISIBILITY.

MSZ001>002-007>008-010>013-018>021-025>028-034>036-241300-
NORTHWEST MISSISSIPPI

CITY           SKY/WX    TMP DP  RH WIND       PRES   REMARKS
CLARKSDALE     FAIR      68  68 100 CALM      30.04R
CLEVELAND      FAIR      69  69 100 CALM      30.02R FOG
GREENWOOD      FOG       70  69  97 N5        30.01R VSB 1/4
6HR MIN TEMP:  69; 6HR MAX TEMP:  71;

GREENVILLE     CLEAR     70  69  97 CALM      30.01R
6HR MIN TEMP:  70; 6HR MAX TEMP:  74; 6HR PCP:  0.01;

GRENADA        FAIR      68  68 100 N3        30.02R
OLIVE BRANCH   PTSUNNY   68 N/A N/A N6        30.03R
OXFORD         FAIR      66  66 100 CALM      30.04R
TUNICA         SUNNY     70  68  94 CALM      30.05R
$$

MSZ003>006-009-014>017-022>024-029>033-037>039-241300-
NORTHEAST MISSISSIPPI

CITY           SKY/WX    TMP DP  RH WIND       PRES   REMARKS
BELMONT        FOG       68  68  99 CALM      30.02R VSB 3/4
COLUMBUS AFB   FOG       71  71 100 NW1       30.01R VSB 1/2
6HR MIN TEMP:  70; 6HR MAX TEMP:  72;

CORINTH        CLOUDY    68  66  94 N5        30.02R FOG
GOLDN TRIANGLE FOG       72  68  88 CALM      30.01R VSB 1/4
STARKVILLE     FOG       68  68 100 CALM      30.00S VSB 1/4
TUPELO         SUNNY     71  68  90 N5        30.01R
6HR MIN TEMP:  70; 6HR MAX TEMP:  75;

$$

MSZ040-058-241300-
CENTRAL MISSISSIPPI

CITY           SKY/WX    TMP DP  RH WIND       PRES   REMARKS
JACKSON INTL   PTCLDY    71  70  96 CALM      30.01R
6HR MIN TEMP:  71; 6HR MAX TEMP:  74;

JACKSON HAWKNS CLEAR     72  68  87 MISG      30.01R
6HR MIN TEMP:  71; 6HR MAX TEMP:  74;

MERIDIAN KEY   CLOUDY    71  70  96 CALM      30.02R
6HR MIN TEMP:  69; 6HR MAX TEMP:  73; 6HR PCP:  0.03;

MERIDIAN NAS   MOSUNNY   70  68  93 CALM      30.02R
6HR MIN TEMP:  69; 6HR MAX TEMP:  72;

RAYMOND        FAIR      70  64  83 CALM      30.01R HAZE
VICKSBURG      PTCLDY    72  70  93 W3        30.00S FOG
6HR MIN TEMP:  71; 6HR MAX TEMP:  74;

$$

MSZ059>079-241300-
SOUTH MISSISSIPPI

CITY           SKY/WX    TMP DP  RH WIND       PRES   REMARKS
BROOKHAVEN     FAIR      70  70 100 CALM      30.03R FOG
COLUMBIA       PTSUNNY   72  72 100 CALM      30.01R FOG
HATTIESBURG    CLEAR     72  71  97 CALM      30.03R FOG
6HR MIN TEMP:  71; 6HR MAX TEMP:  75;

MCCOMB         CLEAR     72  70  93 CALM      30.02R FOG
6HR MIN TEMP:  71; 6HR MAX TEMP:  75;

NATCHEZ        CLOUDY    70  68  94 CALM      30.03R
6HR MIN TEMP:  70; 6HR MAX TEMP:  72;

PINE BELT      CLEAR     72  68  88 CALM      30.03R
6HR MIN TEMP:  70; 6HR MAX TEMP:  73;

$$

MSZ080>082-241300-
COASTAL MISSISSIPPI

CITY           SKY/WX    TMP DP  RH WIND       PRES   REMARKS
BAY ST LOUIS   PTCLDY   N/A N/A N/A CALM      30.00
BILOXI         PTCLDY    74  72  95 N5        30.01R
6HR MIN TEMP:  73; 6HR MAX TEMP:  78;

PASCAGOULA     PTCLDY    73  72  96 N3        30.01R
6HR MIN TEMP:  70; 6HR MAX TEMP:  73; 6HR PCP: TRACE;

GULFPORT       CLEAR     77  71  82 CALM      30.00R
6HR MIN TEMP:  75; 6HR MAX TEMP:  79;

$$



USA.gov is the U.S. government's official web portal to all federal, state and local government web resources and services.